User: anonymous   Login
Location: Unspecified
(0.0000°N, 0.0000°E)
Time: 19:56:12
(UTC+00:00)
Language:

HORYU 4 - Orbit

View from above orbital plane
View from above orbital plane
View from above satellite
View from above satellite

Ground track
Ground track

The orbit data is extracted from the following two-line orbital elements,

1 41340U 16012D   17144.70650715 +.00000671 +00000-0 +45078-4 0  9992
2 41340 031.0051 258.2175 0014194 202.2306 157.7715 15.00573753069484
Epoch (UTC): 24 May 2017 16:57:22
Eccentricity: 0.0014194
inclination: 31.0051°
perigee height: 555 km
apogee height: 575 km
right ascension of ascending node: 258.2175°
argument of perigee: 202.2306°
revolutions per day: 15.00573753
mean anomaly at epoch: 157.7715°
orbit number at epoch: 6948

The dashed part of the orbit path shows where the satellite is in the earth's shadow,  

DLR